Theta_e
312 316 321 325 319 317 318 318 319 319 330 343 345 343 348 349 354 356 356 356 357 350 349 346 344 340 341 340 338 334 324 324 324 327 339 340 338 338 335 327 329 330 329 328 326 325 325 328 332
315 322 324 323 317 317 315 315 319 320 322 343 342 344 347 349 352 355 357 358 358 352 349 346 344 343 340 337 337 335 330 324 326 327 331 335 334 335 332 327 329 330 328 325 325 324 324 327 330
320 322 323 314 314 316 317 317 315 317 319 325 335 339 340 345 345 349 356 357 359 353 349 347 343 344 339 336 335 334 334 325 326 328 326 327 331 330 327 327 328 329 330 328 327 325 325 324 326
319 321 318 316 321 320 320 315 314 315 321 326 334 333 338 342 340 350 355 355 359 355 350 348 344 343 339 335 333 334 336 330 325 327 323 323 324 325 326 328 328 328 329 330 328 328 328 327 324
318 318 313 316 318 317 316 315 316 314 317 329 332 337 344 341 341 347 353 357 360 359 354 350 347 344 340 336 332 332 336 334 324 327 323 321 322 324 326 327 327 328 329 328 327 327 326 325 324
315 315 312 314 315 315 315 315 317 314 316 324 335 335 342 344 335 327 336 349 362 361 359 352 349 345 341 338 334 330 334 337 328 325 326 322 322 323 326 326 326 327 329 329 327 325 328 324 323
311 307 311 314 312 314 315 316 315 314 316 317 324 325 333 335 324 326 325 332 345 343 347 354 352 348 344 339 336 332 330 336 335 326 326 325 322 322 322 323 324 326 327 328 327 327 329 322 323
315 306 310 311 313 315 316 317 318 318 317 318 318 317 319 319 325 331 335 334 337 340 335 340 348 354 349 343 338 336 332 333 337 332 326 326 324 323 322 322 323 325 325 326 325 331 329 323 325
314 306 307 313 316 315 316 316 318 318 318 318 318 318 318 319 318 320 342 343 345 340 344 343 343 349 356 349 341 337 335 334 336 336 329 327 325 323 323 323 322 323 324 325 328 331 328 326 324
311 309 313 312 316 315 315 316 317 317 316 317 318 319 319 319 319 318 319 332 345 345 341 345 343 344 348 353 348 340 336 336 335 338 334 329 326 324 324 324 323 323 324 326 329 329 326 326 322
315 313 314 316 317 317 315 315 317 317 315 318 318 319 319 319 319 318 318 319 319 328 347 340 340 340 347 351 353 350 340 335 336 337 337 332 329 325 324 325 325 324 325 327 327 327 326 325 322
316 316 315 316 317 317 315 316 316 316 317 318 318 318 319 319 319 319 319 319 319 319 318 321 340 346 348 350 353 356 351 340 335 335 336 335 333 329 325 325 326 325 326 326 326 327 327 326 323
315 315 316 318 318 318 317 315 315 316 316 316 316 317 318 318 318 319 319 319 319 319 318 318 327 336 343 349 346 351 353 347 337 334 334 335 334 334 331 328 326 326 326 326 327 328 328 327 325
316 315 316 318 317 317 315 314 315 316 316 316 316 316 316 316 317 317 318 318 319 319 319 318 324 327 333 338 340 347 350 350 340 336 334 333 334 334 333 331 330 329 327 326 326 328 329 329 329
316 315 314 315 316 314 315 313 314 315 316 316 316 316 316 316 316 316 317 317 318 319 319 319 318 327 332 327 328 340 349 349 346 339 336 334 334 333 333 332 332 332 332 330 327 328 330 333 334
315 313 315 314 312 314 314 312 312 315 315 315 315 316 316 316 316 316 316 317 317 317 318 319 319 318 328 335 329 331 332 348 350 347 342 336 334 333 333 332 331 332 334 334 338 333 331 336 337
310 314 314 312 312 312 313 312 312 315 314 315 316 316 315 316 316 316 317 317 317 317 317 318 319 318 318 331 329 336 324 331 347 349 348 346 339 334 333 332 331 332 336 339 335 333 336 337 335
313 312 310 310 311 311 312 311 311 315 315 315 316 315 317 319 319 318 318 318 319 318 318 317 318 318 318 318 330 332 334 345 345 346 346 348 345 340 336 333 331 332 338 340 339 339 339 339 338
313 311 311 312 311 313 311 311 311 313 314 314 314 319 319 319 320 320 320 319 320 320 319 318 317 318 318 319 322 329 330 330 331 341 343 345 347 345 343 337 332 332 338 341 340 340 341 339 337
314 314 313 312 314 313 312 313 311 312 313 314 319 318 319 319 321 321 322 320 320 320 320 320 320 317 318 319 319 321 327 324 322 322 329 329 342 345 345 344 339 334 337 343 342 342 343 340 335
314 314 313 313 313 311 311 313 313 312 314 318 318 318 318 319 320 321 321 322 322 322 321 320 320 319 317 319 319 320 326 326 324 325 327 335 338 341 345 345 344 342 338 344 343 342 342 339 335
315 314 313 313 312 311 312 313 313 312 315 316 318 319 318 319 320 320 321 321 322 322 323 321 320 320 318 319 320 320 321 321 321 320 320 320 320 334 340 346 345 344 340 345 343 342 342 337 338
314 313 312 312 311 312 311 309 310 314 317 316 316 319 318 317 318 319 319 319 319 321 322 324 323 319 319 319 320 320 320 320 320 320 320 320 320 320 337 340 345 344 344 343 344 342 341 339 340
313 311 310 308 308 309 312 312 312 313 317 317 318 318 318 316 315 316 317 318 319 319 320 322 323 323 323 320 321 322 320 320 321 321 320 320 320 319 319 336 343 345 345 342 342 341 342 341 339
311 309 308 310 309 311 311 313 312 311 316 317 318 317 316 314 313 313 313 314 317 318 318 318 319 322 324 325 322 321 323 320 320 321 320 320 320 321 321 334 338 343 345 344 344 342 341 341 339
312 310 308 312 312 313 312 315 314 313 316 317 317 315 314 313 312 312 312 312 312 312 315 317 318 320 321 324 326 326 323 327 321 321 320 320 321 320 333 336 334 335 344 343 342 341 340 339 338
312 309 310 308 311 315 313 313 312 315 315 316 315 314 312 312 311 311 312 311 310 310 311 312 315 317 321 321 326 326 326 326 329 322 322 324 321 324 330 329 334 338 338 333 332 333 340 338 337
313 311 311 308 314 319 314 313 314 312 313 312 313 312 312 312 312 312 311 310 308 308 307 309 311 314 318 321 322 327 328 327 328 328 326 328 326 327 331 332 337 340 341 334 334 335 334 339 336
312 311 314 315 318 318 317 313 308 312 312 311 311 312 312 311 311 311 311 310 307 308 309 309 310 313 317 322 320 322 325 328 324 327 326 326 326 328 330 334 336 340 341 339 335 337 338 338 335
311 311 311 308 313 311 316 316 312 310 312 313 313 313 311 311 311 311 311 308 308 308 308 308 309 312 316 321 322 322 326 327 329 328 326 327 328 329 330 336 339 339 337 337 338 338 339 338 332
Wind_Speed
4 4 5 3 4 4 3 5 4 9 7 2 7 9 8 7 1 2 7 7 8 14 23 22 20 18 17 16 14 14 16 19 20 21 21 19 17 17 17 19 17 15 13 12 12 12 12 10 9
3 3 2 3 4 3 5 6 8 5 9 11 15 12 9 3 8 9 5 10 10 17 23 22 20 19 18 17 16 14 15 17 19 21 22 21 20 20 20 21 18 14 13 12 12 11 10 8 7
5 3 3 4 3 3 2 8 16 16 15 12 4 9 5 3 5 5 6 9 10 18 22 21 20 19 18 17 16 15 15 16 18 19 21 22 23 23 23 22 18 15 13 12 10 10 9 8 7
4 3 5 4 2 2 3 9 13 9 8 9 10 5 7 4 2 5 6 6 9 16 19 21 19 18 18 17 16 16 15 15 18 19 20 21 23 24 25 23 20 16 13 13 10 9 8 9 7
4 3 4 3 2 2 1 11 21 9 5 17 4 4 7 13 10 8 6 6 5 10 11 18 19 18 18 17 16 16 16 15 17 18 19 20 22 24 25 23 20 17 15 13 9 8 8 8 7
3 3 4 1 3 5 4 12 21 13 18 16 15 6 3 8 8 10 9 7 7 4 4 9 17 18 18 18 16 16 17 16 16 18 19 20 21 23 24 23 21 18 16 13 10 8 7 6 6
5 4 3 1 4 3 4 7 9 7 14 15 5 3 4 5 5 8 4 3 5 3 2 5 14 18 18 19 18 18 19 18 17 18 19 20 21 22 23 23 21 19 17 14 10 9 7 6 5
2 4 3 2 1 3 4 5 6 8 4 8 11 4 3 9 4 4 5 4 3 5 3 2 8 17 21 21 21 20 19 19 18 18 19 20 21 22 23 22 21 20 18 14 11 9 7 5 5
1 5 1 3 4 6 5 5 5 5 10 8 9 7 8 7 8 6 7 10 11 9 8 6 6 10 18 23 22 22 21 21 21 20 20 21 22 23 23 22 21 20 18 15 13 10 8 6 6
5 4 6 4 2 3 7 5 12 4 8 10 19 9 11 14 12 8 3 7 15 14 13 11 9 10 11 21 24 23 24 25 24 23 22 22 22 23 23 23 22 20 18 16 14 11 10 7 7
2 3 4 2 4 15 6 6 6 3 9 24 20 25 20 16 17 14 12 9 9 12 17 17 15 14 14 16 23 26 26 27 27 26 24 24 24 24 24 24 23 22 20 18 16 13 11 9 9
2 1 3 7 17 15 7 10 6 4 15 25 27 27 24 20 15 13 13 16 14 15 13 15 20 18 18 18 21 25 30 30 30 29 27 27 26 25 25 26 24 23 21 19 17 15 13 12 11
3 4 17 21 21 18 10 12 5 5 24 21 21 21 18 18 23 21 21 22 25 20 20 16 15 20 20 22 19 22 29 33 32 31 30 30 28 27 26 27 26 24 22 20 19 17 15 13 13
6 11 16 15 14 6 5 7 4 11 19 23 24 23 21 20 19 19 20 23 25 27 21 21 19 20 21 23 23 21 22 30 31 31 31 30 29 29 28 28 27 26 23 21 20 18 16 14 13
6 7 9 5 4 4 8 8 7 10 20 24 29 31 31 31 29 25 24 24 21 27 27 24 22 24 27 25 21 21 21 23 30 30 30 31 31 31 30 29 28 26 24 22 21 21 19 16 13
6 4 5 7 8 4 5 8 5 8 17 21 25 29 30 31 31 30 27 26 27 26 28 31 27 24 28 29 25 25 23 26 27 28 29 31 31 32 31 31 29 25 24 21 21 23 20 18 16
6 4 5 9 5 4 2 8 7 13 13 22 27 29 30 33 33 30 28 28 26 28 32 30 34 29 27 32 31 29 27 27 29 31 30 28 30 33 33 33 30 27 23 22 19 21 19 18 15
7 4 5 7 6 6 7 11 3 15 17 22 25 28 24 26 30 31 33 32 28 28 29 28 31 33 31 27 33 33 32 32 30 32 31 30 31 32 34 35 33 30 25 24 21 20 20 18 14
5 4 7 5 9 3 7 11 4 13 14 18 22 21 23 22 21 23 27 27 28 24 22 29 32 33 35 33 33 34 35 33 30 32 30 32 34 31 30 35 37 33 31 27 25 23 22 20 18
4 3 5 5 5 5 10 19 7 6 7 16 6 15 19 25 23 23 23 16 20 22 25 30 29 35 37 38 35 35 38 37 33 30 31 31 33 37 34 33 37 38 34 30 30 26 26 26 24
3 1 5 7 4 6 6 17 6 5 3 5 7 14 19 19 25 26 24 23 12 11 15 21 32 30 35 40 39 37 38 36 33 33 32 32 38 39 42 38 38 37 38 34 33 30 30 31 28
4 2 5 10 6 5 3 14 3 1 4 3 11 13 18 20 23 25 24 24 26 27 23 18 17 20 29 38 39 39 38 38 37 34 34 32 32 39 43 43 42 42 39 38 37 32 33 32 30
5 5 5 9 5 3 5 3 6 3 2 5 8 7 15 17 19 23 26 28 27 25 26 25 19 14 21 35 42 40 41 38 36 36 33 28 29 34 38 44 42 42 39 41 37 37 37 36 31
5 5 6 4 3 1 3 4 5 4 4 5 4 10 7 13 17 18 21 23 25 25 23 23 23 21 15 25 39 45 42 40 40 39 33 30 32 34 38 37 44 42 44 46 41 39 36 36 30
10 6 4 6 4 5 3 4 9 6 7 6 4 6 5 6 14 21 26 29 27 28 29 29 27 24 22 18 23 36 48 40 36 39 35 30 30 35 34 35 36 39 46 47 48 39 35 34 31
2 5 4 5 3 6 5 6 6 8 7 7 5 3 3 11 16 20 25 30 33 33 29 30 31 27 27 28 19 24 36 47 38 34 31 32 27 28 28 26 32 33 40 44 27 32 29 35 32
2 1 3 1 2 4 4 6 8 6 9 8 11 5 9 12 19 25 32 35 39 41 41 36 34 30 24 26 24 22 29 39 40 35 35 24 21 24 25 27 30 27 35 34 30 33 33 32 30
3 4 0 2 3 5 4 5 7 6 9 9 7 10 14 18 25 31 35 44 52 51 46 42 35 32 26 23 23 18 20 30 29 24 16 18 21 22 23 23 26 27 33 34 35 45 43 37 32
2 2 1 3 3 3 4 6 5 11 13 7 9 13 14 22 27 32 41 56 57 55 50 39 34 27 24 17 23 21 19 18 25 19 17 17 20 19 19 20 22 22 26 34 40 38 38 41 35
6 7 6 4 5 5 5 14 12 9 4 9 20 19 20 26 31 34 51 51 44 44 41 33 25 23 22 15 17 17 11 10 18 24 17 13 15 16 17 17 17 19 27 30 37 36 38 35 34
Wind_Direction
344 310 333 22 61 60 282 273 322 344 354 300 85 122 129 54 9 195 140 155 149 163 172 172 174 172 176 174 166 158 164 171 173 175 175 175 174 169 169 169 165 160 156 149 142 136 133 137 132
17 18 34 66 81 62 284 310 328 275 327 107 80 80 64 64 93 115 121 121 153 167 176 176 176 177 179 177 174 170 167 171 175 177 179 180 179 177 176 174 171 164 157 150 147 141 139 146 148
23 44 55 84 104 139 313 329 308 290 315 281 91 74 84 96 82 139 126 127 133 170 179 178 179 182 183 179 178 178 175 175 178 180 180 180 180 179 178 177 175 169 163 161 155 153 152 158 175
10 54 63 80 117 225 13 314 326 308 39 19 105 58 70 88 32 145 104 128 133 167 180 181 184 185 188 186 183 182 181 180 181 183 182 182 180 178 179 181 179 173 166 163 164 166 166 171 187
54 64 62 73 296 282 280 358 9 1 61 38 80 39 83 91 78 60 54 95 144 164 180 188 187 189 193 195 191 189 187 184 184 184 185 185 183 182 184 186 185 180 174 176 174 177 178 176 192
69 74 62 78 319 288 309 19 17 12 14 37 65 67 65 109 73 54 38 79 135 140 161 197 201 197 199 201 203 198 194 192 188 188 189 191 190 189 191 193 192 189 191 192 192 196 191 184 193
105 77 152 138 332 12 325 15 25 350 13 3 41 81 112 97 26 7 11 71 134 137 162 201 211 213 209 208 208 209 203 198 196 192 193 196 198 197 199 199 198 199 201 203 206 206 205 189 195
76 87 45 2 47 291 330 9 19 16 0 12 27 16 31 17 338 269 234 219 227 195 194 232 222 225 223 217 213 212 211 205 203 201 199 200 203 205 204 205 204 206 207 210 212 214 214 199 201
126 60 38 310 28 275 301 352 4 344 342 339 346 332 342 4 353 5 232 222 219 229 224 232 241 236 234 225 221 217 214 213 209 208 206 205 208 208 208 209 209 210 210 211 213 220 217 209 212
71 96 216 224 276 330 327 330 322 338 316 320 329 335 338 326 326 330 335 257 241 236 244 236 244 248 239 229 226 225 222 217 214 212 211 211 212 213 213 213 213 213 213 214 219 222 218 212 213
1 136 210 300 21 346 311 303 313 328 320 314 311 312 313 314 316 301 300 292 285 264 254 268 251 249 241 237 232 232 230 225 220 217 216 216 217 216 216 217 216 215 215 217 223 225 223 210 210
20 9 65 313 329 338 320 312 291 248 298 320 313 306 298 291 311 310 302 299 298 280 281 269 256 249 245 243 239 241 236 232 226 222 219 219 220 220 221 222 222 223 222 223 227 226 224 214 210
52 323 325 324 323 323 328 336 315 324 359 349 346 342 319 300 303 294 288 288 291 285 277 275 249 251 250 248 249 252 247 235 230 227 225 223 223 226 226 227 226 228 227 228 229 228 226 222 220
313 303 299 311 319 315 13 316 21 324 0 353 353 348 340 333 329 319 303 290 288 271 283 280 245 243 254 251 252 253 258 240 235 232 232 230 228 230 232 232 230 230 230 230 229 229 228 231 227
315 326 335 3 9 301 357 330 320 332 343 339 338 333 329 321 318 311 305 304 296 270 272 270 264 242 239 247 246 250 252 246 237 236 237 236 234 234 233 237 235 234 233 232 230 225 222 217 214
360 47 4 294 330 320 66 277 263 322 330 320 331 330 322 319 314 309 305 298 285 286 275 263 258 252 243 241 247 242 249 247 244 241 237 240 241 240 239 239 239 236 232 227 231 223 222 214 218
2 261 277 312 283 312 180 262 254 311 312 318 324 327 323 319 310 304 303 299 286 279 271 272 252 252 250 236 243 243 251 250 245 246 243 239 241 243 243 243 241 236 231 223 227 214 209 209 212
276 265 256 255 283 215 255 261 262 310 313 313 317 321 321 316 311 305 299 293 291 284 266 264 258 250 246 240 237 242 247 249 249 246 250 249 247 245 243 244 242 235 228 218 216 213 211 216 220
254 230 248 267 262 281 240 270 265 254 291 302 315 345 338 332 333 318 302 292 281 281 276 264 259 255 238 233 234 235 237 242 245 251 246 254 249 247 247 244 243 234 227 218 216 222 224 222 215
284 286 314 304 355 318 292 285 267 214 234 284 2 358 355 355 350 358 356 302 281 289 282 271 266 252 248 242 238 235 230 236 241 250 251 254 251 251 245 247 244 238 230 223 222 225 231 220 213
330 116 294 271 302 262 284 280 283 263 309 318 331 345 350 351 356 0 5 15 4 340 315 283 257 253 249 243 242 235 229 231 239 244 251 253 255 256 248 244 245 244 232 228 223 227 227 218 215
316 285 320 307 326 280 160 290 217 332 320 300 335 358 356 356 3 12 14 18 19 20 8 337 283 255 252 243 236 232 231 234 236 244 252 257 261 253 253 246 244 244 237 229 226 227 223 219 232
238 329 265 287 255 334 285 356 263 351 316 307 304 352 10 21 9 11 11 15 18 13 12 11 352 282 261 248 233 235 232 238 247 247 248 254 265 259 253 251 249 238 241 232 228 224 223 228 240
266 340 349 44 86 3 263 99 267 277 234 291 305 56 24 6 3 12 4 6 6 6 1 355 357 350 302 249 244 235 239 242 239 238 244 253 265 268 257 251 247 239 238 233 229 224 225 232 236
37 41 332 346 360 233 261 320 243 264 254 237 288 48 72 46 355 1 3 1 359 357 355 354 342 342 339 297 251 248 246 242 243 240 242 259 272 269 260 249 249 246 235 234 226 220 226 233 234
281 149 161 258 235 268 313 239 253 227 266 307 284 143 12 347 352 354 353 352 349 347 343 341 346 333 327 335 291 261 250 247 241 238 248 259 273 271 262 257 248 252 243 228 238 212 220 231 234
274 167 189 200 248 274 243 282 315 271 289 288 336 325 322 331 344 346 344 341 336 332 328 328 326 332 329 319 319 265 252 249 248 238 245 268 265 265 263 258 243 248 232 256 256 230 230 230 230
138 180 39 15 288 255 267 266 245 295 280 280 290 289 306 325 333 337 337 332 325 319 316 312 311 312 317 328 310 292 260 252 254 259 256 259 265 266 261 248 244 244 231 212 202 209 218 227 226
319 311 131 136 218 279 290 258 219 287 294 274 276 278 297 317 328 331 329 324 315 309 306 301 299 296 309 308 318 306 260 243 247 240 244 258 261 259 250 239 231 237 233 205 209 209 218 220 205
183 204 175 129 264 230 270 275 254 251 259 306 292 288 302 321 324 320 322 319 315 310 302 300 295 295 301 288 309 300 257 219 228 226 232 240 253 256 241 233 224 222 201 216 221 224 208 195 182